Dewpoint
72 71 70 70 69 69 69 69 69 69 68 68 68 67 67 66 65 65 65 65 65 65 65 65 65 65 65 65 65 65 65 65 65 65 65 65 65 65 65 65 65 65 66 66 66 66 66 66 66 66 65 65 66 66 66 67 67 67 67 67 67 67 67 66 66 66 66 66 66 66 66 66 65 65 66 66 66 66 66 65 65 65 65 64 64 64 63 63 62 61 61 61 61 61 61 60 58 53 52 52 52 53 55
72 71 71 70 69 69 69 69 69 69 69 68 68 67 66 66 65 65 65 65 65 65 65 65 65 65 65 65 65 65 65 65 65 65 65 65 65 65 65 65 65 65 65 65 66 66 66 66 66 65 65 65 65 65 66 66 67 67 67 67 67 66 66 66 66 66 66 66 66 66 66 66 65 66 66 66 66 66 65 65 65 64 64 64 63 63 63 62 61 61 61 61 61 61 61 59 56 52 52 52 52 53 54
72 71 71 70 70 69 69 69 69 69 69 68 68 67 66 65 65 65 65 65 65 65 65 65 65 65 65 65 65 65 65 65 65 65 65 65 65 65 65 65 65 65 65 65 65 66 66 66 66 65 65 65 65 65 65 66 67 67 67 67 67 66 66 66 66 66 66 66 66 66 66 66 66 66 66 66 65 65 65 65 64 64 63 63 63 62 62 61 60 60 60 61 61 61 59 56 53 52 51 52 52 53 54
73 72 71 70 70 70 69 69 69 69 69 69 68 67 66 65 65 65 65 65 65 65 65 65 65 65 65 65 65 65 65 65 65 65 65 65 65 65 65 65 64 65 65 65 65 65 65 65 65 65 65 65 65 64 65 66 67 67 67 67 66 66 66 66 66 66 66 66 66 65 65 65 66 65 65 65 65 65 65 64 64 63 63 63 62 62 61 61 60 59 60 60 61 59 55 52 51 51 52 52 52 53 55
73 72 71 70 70 70 69 69 69 69 69 69 68 67 66 65 65 65 65 65 65 65 65 65 65 65 65 65 65 65 65 65 65 65 65 65 65 65 64 64 64 64 65 65 65 65 65 65 65 65 65 65 65 65 65 65 66 66 66 66 66 66 66 66 66 66 66 66 65 65 65 65 65 65 65 65 65 64 64 64 63 63 63 62 62 61 61 60 59 59 60 60 60 55 51 49 50 51 52 52 53 54 55
72 72 72 71 70 70 70 69 69 69 69 69 68 67 66 65 65 65 65 65 65 65 65 65 65 65 65 65 65 65 65 65 65 65 65 65 65 65 64 64 64 64 64 65 65 65 65 65 65 65 65 65 64 65 65 65 66 66 66 66 66 66 66 66 66 66 66 66 65 65 65 65 65 65 65 65 64 64 64 63 62 63 63 62 62 61 61 60 60 60 61 60 57 52 49 49 50 51 52 53 54 54 55
71 72 72 72 71 70 70 70 69 69 69 69 68 67 66 65 65 65 65 65 65 65 65 65 65 65 65 65 65 65 65 65 65 65 65 65 65 64 64 64 64 64 64 64 65 65 65 65 65 65 65 64 64 65 65 65 66 66 66 66 66 66 66 66 66 66 66 65 65 65 65 65 65 65 65 64 64 64 63 61 59 60 60 61 61 61 61 61 61 61 61 58 52 50 49 49 50 51 52 53 54 54 55
71 71 71 72 71 71 70 70 69 69 69 69 68 67 66 65 65 65 65 65 65 65 65 65 65 65 65 65 65 65 65 65 65 65 65 65 64 64 64 64 64 64 64 64 65 65 65 65 65 65 65 64 65 65 65 65 66 66 66 66 66 66 66 66 66 66 66 65 65 65 65 65 65 65 64 64 64 63 61 59 55 54 55 56 58 60 61 62 63 62 60 56 49 49 49 50 50 51 52 52 53 54 55
70 71 71 71 71 71 71 70 70 69 69 69 68 67 66 65 65 65 65 65 65 65 65 65 65 65 65 65 65 65 65 65 65 65 65 65 64 64 64 64 64 64 64 64 65 65 65 65 65 65 65 64 64 65 65 65 66 66 66 66 66 66 66 66 66 66 65 65 65 65 65 65 64 64 64 64 63 62 59 55 52 51 51 52 52 55 58 61 61 59 56 52 47 48 49 49 50 51 52 53 54 54 55
70 70 70 70 70 71 71 71 70 70 70 69 69 67 66 65 65 65 65 65 65 65 65 65 65 65 65 65 65 65 65 65 65 66 65 65 64 65 64 63 62 62 63 65 65 65 65 65 65 65 65 64 64 64 65 65 66 66 66 66 66 66 65 65 66 65 65 65 65 65 65 64 64 64 63 63 62 59 54 51 49 48 48 49 49 51 53 56 56 54 52 49 46 47 48 50 51 51 52 53 54 55 56
70 70 70 70 70 70 70 71 71 70 70 69 69 67 66 65 65 65 65 65 65 65 65 65 65 65 65 65 65 65 65 65 65 66 65 65 64 65 64 62 62 62 63 65 65 65 65 65 65 64 64 64 64 64 65 65 65 66 66 65 65 65 65 65 65 65 65 65 65 64 64 64 64 63 61 59 58 54 51 49 48 47 47 48 49 50 51 52 52 51 49 47 46 47 49 50 51 51 52 53 53 54 55
70 70 70 70 70 70 70 70 70 70 70 69 69 68 66 65 65 65 65 65 65 65 65 65 65 65 65 65 65 65 65 65 66 66 66 65 64 65 64 63 62 62 64 65 65 65 65 64 64 64 64 63 63 64 64 65 64 64 64 64 64 65 63 62 63 63 63 64 64 63 63 63 62 61 58 56 54 52 50 49 48 47 47 47 49 50 50 51 51 48 47 46 47 48 49 50 50 51 52 52 53 54 54
70 70 70 70 70 70 70 70 70 70 70 70 69 68 67 65 65 65 65 65 65 65 65 65 65 65 65 65 65 65 65 65 66 66 66 65 64 64 64 63 62 63 64 65 64 64 64 64 64 63 63 63 63 64 63 63 62 61 61 61 62 62 61 61 61 61 62 62 61 61 61 60 59 57 55 53 52 51 50 49 48 48 47 47 47 48 49 49 48 46 45 46 47 48 49 50 50 51 51 52 52 53 54
70 70 70 70 70 70 69 69 69 69 69 70 69 68 66 66 65 65 65 65 65 65 65 65 65 65 65 65 65 65 65 65 66 66 65 65 64 64 64 64 63 64 64 64 64 64 64 63 63 63 63 63 63 63 62 60 60 59 59 60 61 60 60 59 60 60 61 61 60 59 59 58 57 55 54 52 52 50 49 49 48 48 47 47 47 47 47 47 45 44 45 47 48 49 50 50 50 51 51 52 52 53 54
69 70 70 70 70 69 69 69 69 69 69 70 70 67 67 66 65 65 65 64 64 64 64 64 64 64 64 64 65 65 65 65 66 66 65 65 65 65 64 64 63 63 64 64 63 63 63 63 63 63 63 63 63 62 60 58 57 58 58 58 59 58 58 58 59 59 59 59 59 58 57 56 55 54 53 52 51 50 49 49 48 47 47 47 47 46 45 44 44 45 46 47 48 49 50 51 51 51 51 51 52 53 54
69 70 70 70 70 69 69 69 69 69 70 70 70 68 67 67 66 65 65 64 64 63 63 64 64 64 64 64 64 65 65 65 65 65 65 65 65 65 64 63 63 63 63 63 63 63 63 63 63 63 63 63 63 60 57 56 56 56 57 57 57 57 57 57 58 58 58 58 57 57 56 56 55 53 53 52 51 50 49 48 48 47 47 47 46 45 44 44 44 46 47 47 48 49 50 50 51 50 50 51 52 52 53
69 70 70 70 69 69 69 69 69 69 69 70 70 68 67 67 67 66 65 64 63 63 63 63 63 63 63 63 63 65 65 65 65 65 65 65 65 65 64 63 62 62 62 62 63 63 63 62 62 63 63 63 63 58 56 55 55 56 56 56 56 56 56 57 57 57 57 57 57 56 56 55 54 53 53 52 51 49 48 47 47 47 47 47 45 44 44 44 46 47 47 48 48 48 49 49 49 49 50 50 51 52 53
69 69 70 69 69 69 69 69 69 69 69 69 69 69 67 67 67 66 66 65 63 63 63 63 63 63 63 63 63 64 65 65 65 65 65 65 65 64 64 63 61 61 61 61 62 63 63 62 63 62 63 63 62 56 54 54 55 55 56 55 55 55 56 56 57 56 56 56 56 56 55 55 54 53 52 52 51 49 47 47 47 47 47 46 44 44 45 46 47 47 48 48 48 48 48 47 47 48 49 50 50 51 52
69 69 69 69 69 68 68 68 69 69 69 69 68 68 68 67 67 67 66 65 64 63 63 64 63 62 62 63 63 64 65 65 65 65 65 64 64 64 64 63 62 61 61 61 61 62 63 63 63 63 63 62 61 55 53 54 54 55 55 55 54 55 56 56 56 56 56 56 56 55 55 54 53 53 52 52 50 48 47 47 47 47 46 45 44 45 46 46 47 47 48 48 47 47 47 46 46 47 48 49 49 50 51
68 68 68 67 68 68 68 68 69 69 69 68 68 67 67 67 67 67 66 66 65 64 64 64 64 62 62 63 63 64 65 65 65 65 65 64 65 65 65 64 61 61 60 60 61 62 63 64 63 63 62 62 61 54 52 53 54 54 54 54 54 55 56 56 56 56 56 56 55 55 55 54 53 53 52 52 50 48 47 47 47 47 46 45 44 45 45 46 47 47 47 47 47 46 46 46 46 46 47 48 48 49 50
68 66 66 67 67 68 68 68 69 68 68 67 67 67 67 67 67 67 67 66 66 65 65 65 64 62 62 62 63 65 65 65 65 65 65 65 65 65 65 64 61 60 60 60 61 62 63 64 63 62 62 62 61 54 52 53 54 54 53 53 54 55 56 56 56 56 56 56 55 55 54 54 53 55 55 53 49 48 47 47 47 47 46 44 44 44 44 45 45 46 46 46 46 45 45 45 45 46 46 47 48 48 49
66 65 65 66 67 67 67 67 69 68 67 67 67 66 66 66 66 66 66 66 66 65 65 65 65 63 62 63 63 65 65 65 64 65 65 65 65 65 65 65 63 61 61 61 62 61 62 63 63 62 61 61 62 56 53 52 53 53 53 53 54 55 56 56 56 56 56 56 55 54 54 53 53 55 55 53 49 47 47 47 47 47 46 44 43 43 43 43 44 45 45 45 45 45 44 44 44 45 46 47 47 48 49
65 65 65 66 67 67 67 67 68 67 67 66 65 65 65 65 65 65 65 65 65 65 65 65 65 64 63 63 64 65 65 64 64 64 65 65 65 65 65 65 63 61 61 61 62 61 61 61 61 61 61 61 63 57 54 52 53 52 52 53 54 55 56 56 56 56 56 55 55 54 54 54 54 54 54 52 48 47 47 47 46 45 44 43 43 42 42 42 43 44 44 45 44 44 44 43 43 44 45 46 47 48 49
65 64 65 65 67 67 67 67 67 67 66 65 64 64 64 64 64 64 63 64 65 65 65 65 65 64 63 63 64 65 65 64 64 64 64 65 65 65 65 65 63 61 61 62 62 60 60 60 61 60 60 61 63 60 56 52 52 52 52 53 55 55 55 56 56 56 56 55 54 54 54 55 55 54 53 51 48 48 47 47 46 45 44 43 42 41 41 42 42 43 44 44 44 43 43 43 43 43 44 45 46 47 48
64 64 64 65 66 66 66 67 67 66 65 64 63 63 63 63 63 63 63 64 65 65 65 65 64 63 63 62 63 64 64 64 64 64 64 65 64 64 64 65 65 62 62 62 63 61 60 60 61 61 60 60 61 61 58 53 52 52 52 54 55 55 55 55 55 55 55 55 54 54 55 55 55 53 52 50 48 47 47 46 45 44 43 42 41 40 40 41 42 43 43 43 43 43 42 42 42 43 43 44 45 46 47
63 63 64 65 65 65 66 66 66 65 64 63 62 62 62 62 62 63 63 63 64 65 65 65 64 63 62 62 62 64 64 64 64 64 65 64 64 63 63 64 65 64 63 63 64 61 60 60 61 61 61 60 60 61 59 55 52 52 53 54 55 55 55 55 55 55 55 55 55 55 56 56 54 52 51 49 48 47 47 46 45 43 42 41 40 39 40 41 42 42 43 43 42 42 42 42 42 42 43 43 44 45 46
64 63 64 64 65 65 65 65 65 65 64 62 61 61 62 62 63 63 63 63 64 64 64 64 64 64 63 62 62 63 64 64 64 64 65 64 63 63 63 64 65 64 64 63 64 62 61 60 61 62 61 60 59 61 60 57 52 53 54 54 54 55 55 55 55 54 54 54 55 55 55 55 53 52 50 49 48 47 47 45 44 43 42 41 40 40 40 41 41 41 41 42 41 41 41 41 41 42 42 42 43 44 45
65 64 64 64 64 64 64 65 64 64 63 62 61 61 61 62 63 63 63 63 63 63 64 64 64 64 63 62 63 64 64 64 64 64 64 64 64 63 63 63 64 64 64 63 64 63 62 61 61 62 62 61 60 60 60 59 53 53 54 54 54 55 55 55 54 54 54 55 55 55 54 53 52 51 50 49 49 47 46 45 44 42 41 40 40 40 40 41 41 41 41 41 41 41 41 41 41 41 41 42 42 43 43
65 64 64 64 65 64 64 64 64 63 63 62 61 61 61 62 64 64 63 63 62 63 63 63 63 63 62 62 63 63 64 64 64 64 64 64 64 64 64 63 64 64 64 63 64 63 62 61 61 63 64 63 62 60 60 59 53 54 54 54 54 55 55 55 54 54 54 55 55 54 53 52 51 50 49 48 48 47 46 44 43 41 40 39 39 39 40 40 40 40 40 40 41 41 41 40 40 40 41 41 42 42 42
65 64 64 64 65 64 64 64 64 63 63 62 61 60 61 62 64 64 64 63 62 62 62 62 62 62 61 62 63 64 64 64 64 64 64 64 64 64 64 64 64 64 64 63 63 63 63 62 62 63 64 64 63 61 60 59 55 54 54 55 55 55 55 55 54 54 54 54 54 53 52 52 51 49 49 48 47 47 45 43 42 40 39 39 39 38 38 39 39 40 40 40 41 41 41 40 40 40 40 41 41 41 42
65 64 64 65 65 64 64 64 64 63 63 62 61 61 62 63 65 65 64 63 62 61 61 61 61 61 61 61 63 63 64 64 64 64 64 64 64 64 64 64 64 64 64 63 63 63 63 63 62 63 63 64 63 63 62 61 57 55 54 55 55 56 56 55 54 54 54 53 53 52 51 51 50 49 48 47 47 46 44 43 41 40 39 38 38 38 38 38 38 39 39 40 40 41 41 40 40 39 40 40 41 41 41
65 64 64 65 65 64 64 63 63 63 62 62 61 62 63 64 65 65 65 64 63 61 61 60 60 61 61 61 62 62 63 63 64 64 64 64 64 64 64 64 64 64 64 63 63 63 63 63 63 63 63 63 63 63 63 62 60 56 55 55 56 56 56 56 55 54 54 53 52 51 51 50 49 49 48 47 46 45 43 42 40 40 39 38 38 37 37 37 37 38 38 38 39 41 41 40 40 39 39 40 40 40 41
65 64 64 65 65 65 64 63 62 62 62 61 61 63 64 65 65 65 65 64 64 62 61 61 60 60 60 61 61 61 61 62 63 63 64 63 64 64 64 64 64 64 64 63 63 63 63 63 63 63 63 63 63 63 63 63 62 56 55 56 56 56 56 56 56 55 53 52 52 51 50 50 49 49 48 47 45 44 43 41 39 39 38 38 37 37 37 37 37 37 37 37 38 39 40 40 40 40 40 41 42 40 40
65 64 64 64 64 64 64 63 62 61 61 61 62 63 64 65 65 65 65 65 64 63 63 63 62 61 61 61 61 60 60 61 62 63 63 63 63 64 64 64 64 64 63 63 63 63 63 63 63 63 63 63 62 62 62 63 63 57 56 56 56 56 56 56 55 54 53 52 52 51 50 50 49 48 47 46 44 43 42 40 39 38 38 38 37 37 36 36 36 36 36 36 37 38 38 39 40 40 41 42 42 41 40
65 64 64 64 63 64 64 63 62 61 61 62 62 63 64 65 65 65 64 64 64 64 64 64 64 63 62 62 61 60 60 61 62 63 63 63 63 63 64 64 64 64 63 63 63 62 62 63 63 63 63 63 63 62 62 62 62 59 56 56 56 56 56 55 54 54 53 53 52 52 51 50 49 48 47 45 44 42 41 40 39 38 38 38 37 36 36 35 35 35 35 35 36 37 38 38 39 40 41 41 41 40 39
65 65 65 64 63 64 64 63 62 61 61 62 62 63 64 65 64 64 64 64 64 64 64 64 64 64 64 63 61 61 61 61 62 63 63 63 63 63 63 64 64 64 63 63 63 62 62 62 62 62 62 62 62 62 62 62 62 60 57 56 56 56 55 55 54 53 53 53 52 52 51 50 49 47 46 45 43 42 41 39 38 38 38 38 37 36 36 35 35 35 35 35 35 36 37 37 38 40 40 39 39 39 38
64 65 65 65 64 64 63 63 62 62 61 62 62 63 64 64 64 63 63 63 63 63 63 63 63 64 64 63 63 62 61 61 62 63 63 63 63 63 63 63 63 63 63 63 63 62 62 62 62 62 62 62 62 62 62 62 62 60 58 56 56 55 55 54 53 53 53 52 52 51 51 50 49 46 44 44 44 43 41 39 38 38 38 38 38 37 36 37 38 36 35 36 36 36 36 36 38 38 38 38 38 38 38
64 65 65 65 65 64 64 64 63 62 62 62 63 63 63 63 63 63 62 62 62 62 62 62 63 63 63 63 63 63 62 62 62 62 62 62 63 63 63 63 63 63 63 63 63 62 63 63 62 62 62 62 62 62 62 62 62 60 57 56 56 55 54 53 52 53 52 52 51 51 50 50 49 47 45 44 43 42 40 38 38 38 38 37 37 37 36 36 37 35 35 35 36 36 36 36 39 37 36 36 36 36 36
63 65 65 65 65 65 65 65 64 63 63 63 63 63 63 62 62 62 62 61 61 61 61 62 62 62 63 63 63 63 63 62 62 62 62 62 62 63 63 63 63 62 63 63 63 63 63 63 63 62 62 62 62 63 62 62 63 60 57 55 55 55 54 53 53 52 52 51 51 51 51 50 49 47 46 44 41 41 39 38 38 38 38 38 38 35 34 34 34 34 34 34 34 35 35 37 39 36 35 35 35 34 35
63 64 65 65 65 65 65 65 65 64 63 63 62 63 62 62 62 61 61 61 61 61 61 61 62 62 62 62 62 63 63 62 62 62 62 62 62 62 63 62 62 62 62 63 63 63 63 63 63 62 62 62 62 62 62 62 62 59 56 55 55 54 53 53 53 53 52 52 51 51 50 48 48 46 45 43 40 40 39 38 38 37 38 38 38 34 33 32 32 33 33 33 34 34 35 35 36 35 34 34 34 34 34
62 62 64 65 65 65 65 65 65 64 63 63 63 63 62 62 62 62 61 61 61 61 61 61 62 62 62 62 62 62 62 62 62 62 62 62 62 62 63 62 62 62 62 62 63 63 63 63 63 62 62 62 62 62 63 63 60 56 55 54 55 54 53 52 53 52 52 52 51 50 49 48 47 45 44 43 42 40 40 39 38 38 37 36 34 34 33 32 31 30 31 32 32 33 34 35 35 34 33 33 33 34 35
60 61 62 64 65 65 65 65 65 64 63 62 62 63 63 63 62 62 62 61 62 62 62 61 62 62 62 62 62 62 62 62 62 62 63 63 62 62 62 62 62 61 62 62 62 62 62 62 62 62 62 62 62 63 62 60 56 55 54 54 54 54 53 53 53 52 52 52 51 49 48 47 46 43 43 43 43 42 41 39 38 38 38 36 33 32 33 34 33 31 30 29 30 31 33 34 35 34 33 33 32 32 34
59 59 60 62 65 65 65 65 65 64 63 62 63 62 63 63 63 62 62 62 62 62 62 61 61 62 62 63 62 62 63 63 62 62 62 62 62 62 62 61 61 61 61 62 62 62 62 62 62 62 62 62 63 63 59 55 54 54 54 53 53 53 53 52 52 52 51 50 50 48 47 47 46 43 42 42 43 43 41 39 38 38 37 36 35 33 32 33 32 30 29 28 29 29 30 31 33 32 33 33 33 32 33
59 59 59 60 63 64 65 64 64 64 63 62 62 62 63 63 62 62 62 62 62 62 62 61 61 61 61 62 62 62 62 62 62 62 62 62 62 62 62 61 61 61 61 61 61 62 62 61 61 61 62 62 61 58 55 53 53 53 53 53 53 53 52 52 51 50 49 48 48 47 47 46 45 43 42 41 42 41 40 39 39 40 39 38 37 35 32 29 29 28 29 31 31 29 28 28 29 29 30 31 33 34 34
57 59 59 60 60 63 64 64 64 64 63 63 63 63 63 62 62 62 62 62 62 62 62 61 61 61 61 61 61 61 61 61 61 61 61 61 61 61 61 61 61 61 61 61 61 61 61 61 61 61 61 60 57 53 52 52 53 52 52 52 52 52 52 51 50 48 48 47 47 46 46 46 45 45 44 43 41 40 39 39 39 39 39 38 35 35 33 30 28 28 30 31 30 29 26 25 26 28 29 30 33 33 34
56 59 60 60 59 62 63 64 64 64 64 64 63 63 63 62 62 61 61 61 61 61 61 60 60 60 60 60 60 60 60 61 61 61 61 61 61 61 61 61 61 61 61 61 61 60 60 59 60 60 58 56 52 51 51 52 52 52 51 51 52 52 51 50 49 49 48 47 47 47 47 46 44 44 44 43 41 40 39 39 38 39 40 40 36 34 34 34 31 28 26 26 26 25 25 24 25 27 27 29 31 33 33
57 59 60 61 61 61 63 64 64 64 64 64 63 63 62 61 61 61 60 60 60 59 58 58 58 58 58 58 58 58 59 59 60 60 60 60 60 60 61 61 60 60 60 60 60 60 59 58 58 57 54 52 49 50 51 51 51 51 51 51 51 51 51 50 49 49 48 48 47 47 46 45 44 44 44 43 42 41 39 38 38 38 38 40 39 35 34 34 33 29 27 26 25 24 23 23 25 27 26 26 28 32 33
58 59 60 60 61 62 63 64 63 63 63 63 63 62 62 61 61 60 60 59 58 58 57 57 56 57 57 58 58 58 59 59 59 59 59 60 60 60 60 60 60 59 59 59 59 59 58 57 56 53 51 49 49 49 50 50 50 51 50 50 51 51 50 50 49 49 48 47 47 46 45 45 43 44 44 43 43 42 40 38 37 36 37 38 41 38 35 33 32 32 31 30 29 29 29 28 25 25 25 24 25 29 32
58 59 60 61 62 62 63 63 63 63 63 62 62 61 61 61 61 60 60 59 58 58 57 57 57 57 57 58 59 59 59 59 59 59 60 60 60 59 59 59 59 59 59 59 59 59 58 56 53 50 49 48 48 49 50 50 50 50 49 50 50 51 50 49 49 48 47 47 47 45 44 44 45 45 44 43 43 42 41 39 37 35 35 36 38 38 37 34 32 33 34 35 38 39 38 36 31 26 24 25 25 27 29
58 59 60 61 62 62 62 62 63 62 62 62 62 61 61 61 60 60 59 59 58 58 58 57 57 57 57 58 58 59 59 59 59 59 59 59 59 59 59 59 59 58 58 58 59 59 57 54 50 48 47 47 47 48 49 50 50 49 49 49 50 50 50 49 48 47 47 47 47 44 44 45 46 45 44 44 43 42 41 39 37 36 35 35 35 37 37 36 37 35 35 36 37 38 37 36 35 30 27 26 27 28 28
58 59 61 61 62 62 61 61 62 62 62 61 61 61 61 60 60 59 59 58 58 58 58 58 58 58 57 58 58 58 58 59 59 58 59 59 59 59 59 59 58 58 58 58 58 57 55 52 48 47 47 47 47 48 49 49 49 49 49 49 50 50 49 49 48 47 47 47 46 44 43 45 46 46 45 45 44 43 42 40 38 37 36 36 36 37 37 37 38 38 38 39 39 37 36 36 36 37 34 32 32 32 30
59 60 61 61 61 61 61 61 61 61 61 61 61 61 61 60 60 59 59 59 58 58 58 58 58 58 58 58 58 58 58 58 58 58 58 58 58 59 59 58 58 58 58 58 57 55 52 50 47 47 47 47 47 48 48 48 48 48 48 48 49 49 49 48 48 47 47 46 45 45 44 45 45 46 45 45 44 43 43 42 41 39 37 36 36 37 37 37 36 37 38 38 39 38 37 37 38 37 37 37 37 35 33
59 60 61 61 61 61 61 61 61 61 60 60 61 61 60 60 59 59 59 59 58 58 58 58 58 58 58 58 58 57 57 57 58 58 58 58 58 58 58 58 58 58 58 57 55 53 51 48 47 47 47 46 47 47 47 47 47 47 47 47 48 48 48 47 47 46 46 46 45 45 44 44 45 45 45 45 44 44 43 43 42 40 38 37 37 38 38 38 37 37 37 37 36 37 38 38 40 38 37 38 36 36 36
59 59 59 59 60 60 60 60 60 60 60 60 60 60 60 60 60 59 59 59 58 58 58 58 58 58 58 58 57 57 57 57 57 57 57 57 57 58 58 58 58 58 57 56 54 52 49 47 47 47 46 46 46 46 46 46 46 46 46 47 47 48 47 47 46 46 46 46 46 45 45 45 45 45 45 45 44 44 44 43 43 41 40 39 38 38 38 39 38 38 37 37 36 36 37 37 37 38 38 38 35 36 36
58 58 59 59 59 59 59 59 59 59 60 60 60 60 60 60 60 59 59 59 58 58 58 57 57 57 57 57 57 56 56 56 57 57 57 57 57 57 58 58 58 57 55 53 51 50 48 47 49 47 47 47 46 45 45 46 46 46 46 46 47 47 47 47 46 46 46 46 46 46 46 46 46 45 45 45 44 44 44 43 43 41 40 39 39 38 38 38 39 39 38 37 36 35 34 34 33 33 34 34 35 34 33
57 58 58 58 58 59 59 59 59 59 59 60 60 60 60 60 60 60 59 59 59 58 57 57 57 57 57 56 56 56 56 56 56 56 56 56 56 57 57 58 58 56 54 51 50 49 48 48 49 48 47 46 44 44 45 46 46 45 45 45 46 46 47 46 46 46 46 46 46 46 46 46 46 45 45 45 45 44 44 43 43 41 40 40 38 38 37 37 38 38 38 37 36 35 34 33 33 32 32 33 34 33 32
56 57 58 58 58 58 58 59 59 59 59 59 59 59 59 60 60 60 59 59 59 57 57 56 56 56 56 56 56 55 55 56 56 56 56 56 56 57 57 57 58 56 52 50 49 49 49 48 50 49 47 45 44 45 45 45 45 45 44 45 45 46 46 46 46 46 46 46 46 46 46 46 46 45 45 45 45 45 44 43 43 43 42 41 39 39 38 37 37 38 38 38 37 36 35 34 34 34 34 34 35 34 34
56 57 58 58 57 58 58 58 58 58 59 59 59 59 59 59 59 59 59 59 58 57 56 56 56 56 56 56 55 55 55 56 56 56 56 56 56 56 57 57 56 54 51 49 48 48 48 48 49 49 47 45 43 45 45 45 45 45 45 45 44 46 46 46 46 46 46 46 46 46 46 46 45 45 45 45 46 45 44 43 43 43 43 42 41 39 38 38 38 38 38 38 38 37 36 35 35 35 36 36 37 36 36
57 57 57 57 57 57 58 58 58 58 58 58 58 58 59 59 59 59 59 59 58 57 56 56 56 56 56 56 55 55 55 56 56 56 56 56 56 56 56 56 56 52 49 47 47 47 47 47 47 47 46 45 43 44 45 46 46 45 45 45 43 45 46 47 47 46 46 46 46 46 46 45 45 45 45 45 45 45 45 44 43 43 43 42 42 41 40 39 38 38 38 38 38 37 36 36 36 36 36 37 37 38 38
56 57 57 57 57 57 58 58 58 58 58 58 58 58 58 58 58 59 59 59 58 57 56 56 56 57 56 56 56 56 55 55 55 55 56 56 56 56 56 55 54 50 47 47 47 47 46 46 46 46 45 44 43 44 44 45 46 45 44 43 42 45 47 47 47 47 46 46 46 46 46 45 45 45 45 45 45 45 45 45 44 43 43 43 43 43 42 40 39 39 39 39 39 38 38 37 37 37 37 37 37 37 38
56 56 56 56 57 57 58 58 57 57 58 58 58 58 58 58 58 58 59 58 57 56 56 57 58 57 57 57 57 56 55 53 53 54 56 57 56 56 56 55 54 50 47 46 46 46 46 46 46 45 44 43 43 45 45 45 46 45 43 43 42 44 47 48 48 48 47 45 45 46 46 46 45 45 45 45 45 45 45 45 45 44 44 44 44 44 43 42 40 40 39 39 39 39 38 38 38 38 38 38 37 37 38